Time,TemperatureF,DewpointF,PressureIn,WindDirection,WindDirectionDegrees,WindSpeedMPH,WindSpeedGustMPH,Humidity,HourlyPrecipIn,Conditions,Clouds,dailyrainin,SoftwareType,DateUTC
2013-03-03 00:01:00,34.0,27.0,-100.00,East,95,12.0,12.0,77,-99.99,,,-99.99,,2013-03-03 07:01:00,
2013-03-03 00:11:00,34.0,28.0,-100.00,East,100,11.0,13.0,76,-99.99,,,-99.99,,2013-03-03 07:11:00,
2013-03-03 00:21:00,34.0,28.0,-100.00,East,100,11.0,13.0,76,-99.99,,,-99.99,,2013-03-03 07:21:00,
2013-03-03 00:31:00,34.0,27.0,-100.00,East,90,7.0,12.0,76,-99.99,,,-99.99,,2013-03-03 07:31:00,
2013-03-03 00:42:00,34.0,27.0,-100.00,East,100,9.0,10.0,77,-99.99,,,-99.99,,2013-03-03 07:42:00,
2013-03-03 00:51:00,34.0,28.0,-100.00,East,95,9.0,11.0,77,-99.99,,,-99.99,,2013-03-03 07:51:00,
2013-03-03 01:01:00,34.0,27.0,-100.00,ESE,105,11.0,12.0,76,-99.99,,,-99.99,,2013-03-03 08:01:00,
2013-03-03 01:11:00,34.0,27.0,-100.00,East,100,9.0,12.0,75,-99.99,,,-99.99,,2013-03-03 08:11:00,
2013-03-03 01:21:00,34.0,27.0,-100.00,East,100,7.0,10.0,75,-99.99,,,-99.99,,2013-03-03 08:21:00,
2013-03-03 01:31:00,33.0,27.0,-100.00,ESE,115,5.0,9.0,76,-99.99,,,-99.99,,2013-03-03 08:31:00,
2013-03-03 01:41:00,33.0,27.0,-100.00,ESE,110,7.0,10.0,76,-99.99,,,-99.99,,2013-03-03 08:41:00,
2013-03-03 01:53:00,34.0,26.0,-100.00,East,100,7.0,9.0,74,-99.99,,,-99.99,,2013-03-03 08:53:00,
2013-03-03 02:01:00,33.0,26.0,-100.00,East,95,7.0,9.0,74,-99.99,,,-99.99,,2013-03-03 09:01:00,
2013-03-03 02:11:00,33.0,26.0,-100.00,ESE,105,6.0,9.0,74,-99.99,,,-99.99,,2013-03-03 09:11:00,
2013-03-03 02:21:00,33.0,26.0,-100.00,East,95,7.0,11.0,74,-99.99,,,-99.99,,2013-03-03 09:21:00,
2013-03-03 02:32:00,32.0,26.0,-100.00,SE,125,7.0,9.0,76,-99.99,,,-99.99,,2013-03-03 09:32:00,
2013-03-03 02:41:00,32.0,26.0,-100.00,ESE,120,7.0,9.0,76,-99.99,,,-99.99,,2013-03-03 09:41:00,
2013-03-03 02:51:00,32.0,26.0,-100.00,SSE,160,4.0,7.0,77,-99.99,,,-99.99,,2013-03-03 09:51:00,
2013-03-03 03:01:00,33.0,26.0,-100.00,ESE,115,7.0,8.0,76,-99.99,,,-99.99,,2013-03-03 10:01:00,
2013-03-03 03:11:00,32.0,26.0,-100.00,ESE,110,6.0,9.0,75,-99.99,,,-99.99,,2013-03-03 10:11:00,
2013-03-03 03:21:00,33.0,26.0,-100.00,SE,140,5.0,6.0,75,-99.99,,,-99.99,,2013-03-03 10:21:00,
2013-03-03 03:32:00,32.0,25.0,-100.00,SE,140,6.0,9.0,74,-99.99,,,-99.99,,2013-03-03 10:32:00,
2013-03-03 03:42:00,31.0,25.0,-100.00,SW,215,6.0,7.0,77,-99.99,,,-99.99,,2013-03-03 10:42:00,
2013-03-03 03:52:00,27.0,21.0,-100.00,South,185,4.0,6.0,78,-99.99,,,-99.99,,2013-03-03 10:52:00,
2013-03-03 04:01:00,32.0,26.0,-100.00,SSW,195,1.0,6.0,78,-99.99,,,-99.99,,2013-03-03 11:01:00,
2013-03-03 04:11:00,32.0,26.0,-100.00,East,100,6.0,7.0,80,-99.99,,,-99.99,,2013-03-03 11:11:00,
2013-03-03 04:21:00,32.0,27.0,-100.00,ESE,105,11.0,11.0,79,-99.99,,,-99.99,,2013-03-03 11:21:00,
2013-03-03 04:32:00,33.0,27.0,-100.00,East,95,8.0,10.0,79,-99.99,,,-99.99,,2013-03-03 11:32:00,
2013-03-03 04:42:00,33.0,27.0,-100.00,South,190,4.0,9.0,79,-99.99,,,-99.99,,2013-03-03 11:42:00,
2013-03-03 04:52:00,33.0,27.0,-100.00,SSE,150,6.0,8.0,78,-99.99,,,-99.99,,2013-03-03 11:52:00,
2013-03-03 05:01:00,34.0,27.0,-100.00,SE,140,4.0,7.0,77,-99.99,,,-99.99,,2013-03-03 12:01:00,
2013-03-03 05:11:00,33.0,26.0,-100.00,WNW,285,2.0,6.0,77,-99.99,,,-99.99,,2013-03-03 12:11:00,
2013-03-03 05:21:00,32.0,26.0,-100.00,SSW,195,3.0,4.0,78,-99.99,,,-99.99,,2013-03-03 12:21:00,
2013-03-03 05:32:00,32.0,26.0,-100.00,SW,230,3.0,4.0,79,-99.99,,,-99.99,,2013-03-03 12:32:00,
2013-03-03 05:42:00,32.0,27.0,-100.00,NNE,15,1.0,2.0,80,-99.99,,,-99.99,,2013-03-03 12:42:00,
2013-03-03 05:52:00,31.0,26.0,-100.00,NW,320,0.0,2.0,80,-99.99,,,-99.99,,2013-03-03 12:52:00,
2013-03-03 06:01:00,31.0,26.0,-100.00,SSE,150,2.0,3.0,81,-99.99,,,-99.99,,2013-03-03 13:01:00,
2013-03-03 06:11:00,31.0,27.0,-100.00,SSE,160,2.0,3.0,81,-99.99,,,-99.99,,2013-03-03 13:11:00,
2013-03-03 06:21:00,32.0,27.0,-100.00,SSW,195,3.0,4.0,82,-99.99,,,-99.99,,2013-03-03 13:21:00,
2013-03-03 06:32:00,32.0,28.0,-100.00,SSE,160,6.0,6.0,82,-99.99,,,-99.99,,2013-03-03 13:32:00,
2013-03-03 06:42:00,32.0,27.0,-100.00,East,85,3.0,5.0,82,-99.99,,,-99.99,,2013-03-03 13:42:00,
2013-03-03 06:51:00,31.0,27.0,-100.00,SSW,195,2.0,4.0,82,-99.99,,,-99.99,,2013-03-03 13:51:00,
2013-03-03 07:02:00,31.0,27.0,-100.00,South,190,5.0,6.0,83,-99.99,,,-99.99,,2013-03-03 14:02:00,
2013-03-03 07:11:00,31.0,27.0,-100.00,SSE,165,7.0,9.0,84,-99.99,,,-99.99,,2013-03-03 14:11:00,
2013-03-03 07:21:00,32.0,28.0,-100.00,SSE,160,6.0,9.0,84,-99.99,,,-99.99,,2013-03-03 14:21:00,
2013-03-03 07:32:00,33.0,29.0,-100.00,SSE,160,6.0,7.0,84,-99.99,,,-99.99,,2013-03-03 14:32:00,
2013-03-03 07:42:00,33.0,29.0,-100.00,South,190,4.0,7.0,84,-99.99,,,-99.99,,2013-03-03 14:42:00,
2013-03-03 07:52:00,34.0,29.0,-100.00,South,170,4.0,6.0,84,-99.99,,,-99.99,,2013-03-03 14:52:00,
2013-03-03 08:01:00,34.0,30.0,-100.00,SSE,165,1.0,4.0,84,-99.99,,,-99.99,,2013-03-03 15:01:00,
2013-03-03 08:11:00,35.0,30.0,-100.00,SE,140,2.0,5.0,83,-99.99,,,-99.99,,2013-03-03 15:11:00,
2013-03-03 08:22:00,36.0,31.0,-100.00,SSW,195,2.0,10.0,83,-99.99,,,-99.99,,2013-03-03 15:22:00,
2013-03-03 08:32:00,37.0,32.0,-100.00,SE,140,6.0,9.0,81,-99.99,,,-99.99,,2013-03-03 15:32:00,
2013-03-03 08:42:00,36.0,30.0,-100.00,SE,145,7.0,10.0,78,-99.99,,,-99.99,,2013-03-03 15:42:00,
2013-03-03 08:51:00,37.0,30.0,-100.00,SE,130,1.0,6.0,77,-99.99,,,-99.99,,2013-03-03 15:51:00,
2013-03-03 09:01:00,38.0,31.0,-100.00,West,280,2.0,3.0,76,-99.99,,,-99.99,,2013-03-03 16:01:00,
2013-03-03 09:12:00,38.0,31.0,-100.00,SE,145,3.0,8.0,73,-99.99,,,-99.99,,2013-03-03 16:12:00,
2013-03-03 09:21:00,39.0,30.0,-100.00,SE,130,4.0,6.0,71,-99.99,,,-99.99,,2013-03-03 16:21:00,
2013-03-03 09:31:00,38.0,30.0,-100.00,ESE,115,6.0,7.0,72,-99.99,,,-99.99,,2013-03-03 16:31:00,
2013-03-03 09:42:00,38.0,30.0,-100.00,ESE,115,6.0,7.0,72,-99.99,,,-99.99,,2013-03-03 16:42:00,
2013-03-03 09:52:00,38.0,30.0,-100.00,ESE,115,6.0,9.0,71,-99.99,,,-99.99,,2013-03-03 16:52:00,
2013-03-03 10:01:00,39.0,30.0,-100.00,SE,125,7.0,9.0,68,-99.99,,,-99.99,,2013-03-03 17:01:00,
2013-03-03 10:11:00,40.0,29.0,-100.00,East,95,5.0,7.0,66,-99.99,,,-99.99,,2013-03-03 17:11:00,
2013-03-03 10:22:00,40.0,30.0,-100.00,SE,145,4.0,7.0,65,-99.99,,,-99.99,,2013-03-03 17:22:00,
2013-03-03 10:32:00,41.0,29.0,-100.00,SE,130,1.0,3.0,63,-99.99,,,-99.99,,2013-03-03 17:32:00,
2013-03-03 10:42:00,43.0,28.0,-100.00,SSE,165,6.0,7.0,55,-99.99,,,-99.99,,2013-03-03 17:42:00,
2013-03-03 10:52:00,46.0,29.0,-100.00,SE,135,2.0,6.0,50,-99.99,,,-99.99,,2013-03-03 17:52:00,
2013-03-03 11:01:00,47.0,28.0,-100.00,ESE,115,6.0,9.0,47,-99.99,,,-99.99,,2013-03-03 18:01:00,
2013-03-03 11:11:00,47.0,28.0,-100.00,ESE,115,6.0,9.0,47,-99.99,,,-99.99,,2013-03-03 18:11:00,
2013-03-03 11:21:00,46.0,26.0,-100.00,SE,125,7.0,9.0,45,-99.99,,,-99.99,,2013-03-03 18:21:00,
2013-03-03 11:31:00,48.0,27.0,-100.00,SE,145,4.0,11.0,43,-99.99,,,-99.99,,2013-03-03 18:31:00,
2013-03-03 11:42:00,49.0,27.0,-100.00,SE,125,2.0,4.0,42,-99.99,,,-99.99,,2013-03-03 18:42:00,
2013-03-03 11:52:00,50.0,27.0,-100.00,East,80,4.0,7.0,40,-99.99,,,-99.99,,2013-03-03 18:52:00,
2013-03-03 12:02:00,50.0,28.0,-100.00,East,95,2.0,5.0,42,-99.99,,,-99.99,,2013-03-03 19:02:00,
2013-03-03 12:11:00,49.0,28.0,-100.00,East,80,2.0,6.0,43,-99.99,,,-99.99,,2013-03-03 19:11:00,
2013-03-03 12:21:00,49.0,28.0,-100.00,SE,135,2.0,4.0,43,-99.99,,,-99.99,,2013-03-03 19:21:00,
2013-03-03 12:32:00,51.0,28.0,-100.00,ESE,120,4.0,6.0,39,-99.99,,,-99.99,,2013-03-03 19:32:00,
2013-03-03 12:42:00,54.0,24.0,-100.00,East,95,3.0,6.0,31,-99.99,,,-99.99,,2013-03-03 19:42:00,
2013-03-03 12:51:00,53.0,27.0,-100.00,East,100,6.0,9.0,35,-99.99,,,-99.99,,2013-03-03 19:51:00,
2013-03-03 13:01:00,52.0,26.0,-100.00,East,90,7.0,10.0,36,-99.99,,,-99.99,,2013-03-03 20:01:00,
2013-03-03 13:11:00,51.0,26.0,-100.00,East,95,8.0,9.0,37,-99.99,,,-99.99,,2013-03-03 20:11:00,
2013-03-03 13:21:00,52.0,26.0,-100.00,East,90,7.0,9.0,36,-99.99,,,-99.99,,2013-03-03 20:21:00,
2013-03-03 13:32:00,53.0,27.0,-100.00,East,85,8.0,11.0,36,-99.99,,,-99.99,,2013-03-03 20:32:00,
2013-03-03 13:42:00,55.0,26.0,-100.00,East,85,10.0,12.0,33,-99.99,,,-99.99,,2013-03-03 20:42:00,
2013-03-03 13:52:00,55.0,27.0,-100.00,East,90,8.0,11.0,32,-99.99,,,-99.99,,2013-03-03 20:52:00,
2013-03-03 14:01:00,55.0,25.0,-100.00,East,90,8.0,12.0,30,-99.99,,,-99.99,,2013-03-03 21:01:00,
2013-03-03 14:11:00,56.0,23.0,-100.00,East,95,9.0,13.0,27,-99.99,,,-99.99,,2013-03-03 21:11:00,
2013-03-03 14:21:00,56.0,22.0,-100.00,East,90,11.0,12.0,26,-99.99,,,-99.99,,2013-03-03 21:21:00,
2013-03-03 14:32:00,57.0,23.0,-100.00,East,85,8.0,11.0,26,-99.99,,,-99.99,,2013-03-03 21:32:00,
2013-03-03 14:41:00,57.0,24.0,-100.00,East,95,9.0,11.0,27,-99.99,,,-99.99,,2013-03-03 21:41:00,
2013-03-03 14:52:00,58.0,24.0,-100.00,East,90,10.0,12.0,26,-99.99,,,-99.99,,2013-03-03 21:52:00,
2013-03-03 15:01:00,58.0,24.0,-100.00,East,100,7.0,10.0,25,-99.99,,,-99.99,,2013-03-03 22:01:00,
2013-03-03 15:11:00,59.0,24.0,-100.00,East,95,7.0,10.0,26,-99.99,,,-99.99,,2013-03-03 22:11:00,
2013-03-03 15:22:00,59.0,22.0,-100.00,ENE,70,8.0,11.0,23,-99.99,,,-99.99,,2013-03-03 22:22:00,
2013-03-03 15:32:00,59.0,22.0,-100.00,ENE,70,8.0,11.0,23,-99.99,,,-99.99,,2013-03-03 22:32:00,
2013-03-03 15:42:00,60.0,20.0,-100.00,ENE,75,7.0,9.0,20,-99.99,,,-99.99,,2013-03-03 22:42:00,
2013-03-03 15:52:00,61.0,20.0,-100.00,NE,55,6.0,8.0,20,-99.99,,,-99.99,,2013-03-03 22:52:00,
2013-03-03 16:01:00,60.0,19.0,-100.00,ENE,75,6.0,9.0,20,-99.99,,,-99.99,,2013-03-03 23:01:00,
2013-03-03 16:11:00,59.0,22.0,-100.00,ESE,115,7.0,11.0,24,-99.99,,,-99.99,,2013-03-03 23:11:00,
2013-03-03 16:21:00,59.0,22.0,-100.00,ESE,105,6.0,8.0,24,-99.99,,,-99.99,,2013-03-03 23:21:00,
2013-03-03 16:31:00,59.0,22.0,-100.00,East,95,6.0,10.0,24,-99.99,,,-99.99,,2013-03-03 23:31:00,
2013-03-03 16:41:00,58.0,22.0,-100.00,East,100,9.0,11.0,24,-99.99,,,-99.99,,2013-03-03 23:41:00,
2013-03-03 16:52:00,57.0,23.0,-100.00,East,95,6.0,9.0,26,-99.99,,,-99.99,,2013-03-03 23:52:00,
2013-03-03 17:01:00,56.0,24.0,-100.00,ESE,120,5.0,7.0,28,-99.99,,,-99.99,,2013-03-04 00:01:00,
2013-03-03 17:11:00,55.0,24.0,-100.00,SE,135,4.0,6.0,29,-99.99,,,-99.99,,2013-03-04 00:11:00,
2013-03-03 17:21:00,54.0,26.0,-100.00,SE,130,5.0,6.0,32,-99.99,,,-99.99,,2013-03-04 00:21:00,
2013-03-03 17:32:00,53.0,26.0,-100.00,SE,125,6.0,7.0,34,-99.99,,,-99.99,,2013-03-04 00:32:00,
2013-03-03 17:42:00,52.0,26.0,-100.00,SE,135,0.0,7.0,36,-99.99,,,-99.99,,2013-03-04 00:42:00,
2013-03-03 17:52:00,51.0,26.0,-100.00,ESE,120,2.0,4.0,36,-99.99,,,-99.99,,2013-03-04 00:52:00,
2013-03-03 18:01:00,49.0,26.0,-100.00,SE,145,4.0,4.0,40,-99.99,,,-99.99,,2013-03-04 01:01:00,
2013-03-03 18:11:00,48.0,26.0,-100.00,South,170,3.0,6.0,42,-99.99,,,-99.99,,2013-03-04 01:11:00,
2013-03-03 18:21:00,47.0,26.0,-100.00,ESE,115,2.0,6.0,44,-99.99,,,-99.99,,2013-03-04 01:21:00,
2013-03-03 18:31:00,45.0,26.0,-100.00,East,100,4.0,4.0,45,-99.99,,,-99.99,,2013-03-04 01:31:00,
2013-03-03 18:42:00,46.0,26.0,-100.00,ESE,110,3.0,6.0,45,-99.99,,,-99.99,,2013-03-04 01:42:00,
2013-03-03 18:51:00,44.0,27.0,-100.00,ESE,120,6.0,6.0,50,-99.99,,,-99.99,,2013-03-04 01:51:00,
2013-03-03 19:01:00,43.0,28.0,-100.00,SE,140,6.0,7.0,54,-99.99,,,-99.99,,2013-03-04 02:01:00,
2013-03-03 19:11:00,42.0,29.0,-100.00,SE,140,6.0,7.0,59,-99.99,,,-99.99,,2013-03-04 02:11:00,
2013-03-03 19:22:00,40.0,29.0,-100.00,ESE,120,6.0,7.0,63,-99.99,,,-99.99,,2013-03-04 02:22:00,
2013-03-03 19:32:00,39.0,29.0,-100.00,SE,135,6.0,7.0,68,-99.99,,,-99.99,,2013-03-04 02:32:00,
2013-03-03 19:42:00,39.0,30.0,-100.00,South,180,7.0,7.0,69,-99.99,,,-99.99,,2013-03-04 02:42:00,
2013-03-03 19:52:00,41.0,29.0,-100.00,SSW,200,4.0,13.0,61,-99.99,,,-99.99,,2013-03-04 02:52:00,
2013-03-03 20:01:00,42.0,28.0,-100.00,SSE,150,6.0,7.0,58,-99.99,,,-99.99,,2013-03-04 03:01:00,
2013-03-03 20:11:00,43.0,27.0,-100.00,SW,220,6.0,9.0,52,-99.99,,,-99.99,,2013-03-04 03:11:00,
2013-03-03 20:21:00,42.0,26.0,-100.00,SW,230,7.0,9.0,51,-99.99,,,-99.99,,2013-03-04 03:21:00,
2013-03-03 20:32:00,41.0,25.0,-100.00,SW,220,7.0,9.0,52,-99.99,,,-99.99,,2013-03-04 03:32:00,
2013-03-03 20:42:00,41.0,25.0,-100.00,South,175,8.0,9.0,52,-99.99,,,-99.99,,2013-03-04 03:42:00,
2013-03-03 20:52:00,42.0,26.0,-100.00,South,190,9.0,11.0,52,-99.99,,,-99.99,,2013-03-04 03:52:00,
2013-03-03 21:01:00,42.0,26.0,-100.00,South,185,7.0,11.0,52,-99.99,,,-99.99,,2013-03-04 04:01:00,
2013-03-03 21:11:00,42.0,26.0,-100.00,South,185,7.0,9.0,54,-99.99,,,-99.99,,2013-03-04 04:11:00,
2013-03-03 21:22:00,41.0,26.0,-100.00,South,185,2.0,9.0,55,-99.99,,,-99.99,,2013-03-04 04:22:00,
2013-03-03 21:32:00,40.0,27.0,-100.00,NE,55,7.0,9.0,57,-99.99,,,-99.99,,2013-03-04 04:32:00,
2013-03-03 21:42:00,42.0,26.0,-100.00,SSE,165,7.0,9.0,52,-99.99,,,-99.99,,2013-03-04 04:42:00,
2013-03-03 21:51:00,42.0,26.0,-100.00,South,170,6.0,10.0,52,-99.99,,,-99.99,,2013-03-04 04:51:00,
2013-03-03 22:01:00,39.0,26.0,-100.00,SE,130,6.0,11.0,59,-99.99,,,-99.99,,2013-03-04 05:01:00,
2013-03-03 22:11:00,38.0,26.0,-100.00,South,180,4.0,7.0,60,-99.99,,,-99.99,,2013-03-04 05:11:00,
2013-03-03 22:22:00,40.0,26.0,-100.00,South,170,4.0,4.0,57,-99.99,,,-99.99,,2013-03-04 05:22:00,
2013-03-03 22:31:00,39.0,26.0,-100.00,SSE,160,7.0,9.0,58,-99.99,,,-99.99,,2013-03-04 05:31:00,
2013-03-03 22:42:00,39.0,26.0,-100.00,SSE,165,9.0,11.0,58,-99.99,,,-99.99,,2013-03-04 05:42:00,
2013-03-03 22:52:00,38.0,25.0,-100.00,South,170,6.0,11.0,59,-99.99,,,-99.99,,2013-03-04 05:52:00,
2013-03-03 23:01:00,35.0,23.0,-100.00,SSW,195,3.0,6.0,61,-99.99,,,-99.99,,2013-03-04 06:01:00,
2013-03-03 23:11:00,35.0,24.0,-100.00,East,80,2.0,4.0,65,-99.99,,,-99.99,,2013-03-04 06:11:00,
2013-03-03 23:21:00,35.0,24.0,-100.00,ESE,120,12.0,14.0,62,-99.99,,,-99.99,,2013-03-04 06:21:00,
2013-03-03 23:31:00,34.0,25.0,-100.00,East,80,6.0,12.0,70,-99.99,,,-99.99,,2013-03-04 06:31:00,
2013-03-03 23:42:00,36.0,26.0,-100.00,NW,320,7.0,21.0,67,-99.99,,,-99.99,,2013-03-04 06:42:00,
2013-03-03 23:51:00,36.0,25.0,-100.00,NW,305,6.0,7.0,64,-99.99,,,-99.99,,2013-03-04 06:51:00,